When you browse on this site, cookies collect data to enhance your experience and personalize the content and advertising you see.
Visit our Privacy Policy to learn more. By continuing to use the site, you agree to this use of cookies and data.
  • en Suisse
  • Liste des pays
  • À 7 jours
  • Température de l'eau
  • Carte satellitaire
  • Carte météo
  • Widgets météo
  • user-avatar
    Se connecter

    Météo par heure à São Luís

    Ce jour, 24 Janvier, Jeudi

    Heure Température Précipitation Vent Pression Humidité
    00:00 +28°C° 0 mm 4 m/s 759 mmHg 84%
    01:00 +28°C° 0 mm 4 m/s 758 mmHg 85%
    02:00 +28°C° 0 mm 4 m/s 758 mmHg 87%
    03:00 +27°C° 0 mm 3 m/s 758 mmHg 88%
    04:00 +27°C° 0.3 mm 3 m/s 758 mmHg 89%
    05:00 +27°C° 0.3 mm 3 m/s 758 mmHg 89%
    06:00 +27°C° 0.3 mm 3 m/s 758 mmHg 90%
    07:00 +28°C° 0.4 mm 3 m/s 758 mmHg 87%
    08:00 +29°C° 0.4 mm 4 m/s 759 mmHg 85%
    09:00 +29°C° 0.4 mm 4 m/s 759 mmHg 82%
    10:00 +30°C° 0.4 mm 3 m/s 759 mmHg 81%
    11:00 +30°C° 0.4 mm 3 m/s 759 mmHg 79%
    12:00 +30°C° 0.4 mm 3 m/s 759 mmHg 78%
    13:00 +31°C° 0.1 mm 3 m/s 758 mmHg 74%
    14:00 +33°C° 0.1 mm 4 m/s 758 mmHg 70%
    15:00 +33°C° 0.1 mm 4 m/s 757 mmHg 66%
    16:00 +32°C° 0 mm 4 m/s 757 mmHg 71%
    17:00 +30°C° 0 mm 3 m/s 757 mmHg 75%
    18:00 +29°C° 0 mm 3 m/s 757 mmHg 80%
    19:00 +29°C° 0 mm 3 m/s 758 mmHg 81%
    20:00 +28°C° 0 mm 3 m/s 758 mmHg 83%
    21:00 +28°C° 0 mm 3 m/s 759 mmHg 85%
    22:00 +28°C° 0.9 mm 3 m/s 759 mmHg 87%
    23:00 +27°C° 0.9 mm 2 m/s 760 mmHg 89%

    Demain, 25 Janvier, Vendredi

    Heure Température Précipitation Vent Pression Humidité
    00:00 +27°C° 0.9 mm 2 m/s 760 mmHg 92%
    01:00 +27°C° 1.5 mm 2 m/s 759 mmHg 92%
    02:00 +26°C° 1.5 mm 2 m/s 759 mmHg 92%
    03:00 +26°C° 1.5 mm 2 m/s 758 mmHg 92%
    04:00 +26°C° 0.5 mm 2 m/s 758 mmHg 92%
    05:00 +26°C° 0.5 mm 2 m/s 758 mmHg 92%
    06:00 +26°C° 0.5 mm 2 m/s 758 mmHg 92%
    07:00 +27°C° 0 mm 2 m/s 759 mmHg 88%
    08:00 +28°C° 0 mm 2 m/s 759 mmHg 85%
    09:00 +29°C° 0 mm 2 m/s 759 mmHg 82%
    10:00 +30°C° 0 mm 2 m/s 759 mmHg 75%
    11:00 +31°C° 0 mm 2 m/s 759 mmHg 69%
    12:00 +32°C° 0 mm 2 m/s 759 mmHg 62%
    13:00 +33°C° 0.4 mm 3 m/s 758 mmHg 65%
    14:00 +33°C° 0.4 mm 3 m/s 758 mmHg 68%
    15:00 +32°C° 0.4 mm 4 m/s 757 mmHg 70%
    16:00 +30°C° 0.5 mm 4 m/s 757 mmHg 76%
    17:00 +29°C° 0.5 mm 4 m/s 757 mmHg 82%
    18:00 +28°C° 0.5 mm 3 m/s 757 mmHg 88%
    19:00 +28°C° 0.6 mm 3 m/s 758 mmHg 89%
    20:00 +27°C° 0.6 mm 3 m/s 758 mmHg 90%
    21:00 +27°C° 0.6 mm 3 m/s 759 mmHg 91%
    22:00 +27°C° 0 mm 3 m/s 759 mmHg 90%
    23:00 +27°C° 0 mm 4 m/s 759 mmHg 90%

    Après-demain, 26 Janvier, Samedi

    Heure Température Précipitation Vent Pression Humidité
    00:00 +27°C° 0 mm 4 m/s 759 mmHg 90%
    01:00 +27°C° 0.3 mm 3 m/s 759 mmHg 91%
    02:00 +27°C° 0.3 mm 3 m/s 758 mmHg 91%
    03:00 +27°C° 0.3 mm 3 m/s 758 mmHg 91%
    04:00 +27°C° 1.1 mm 3 m/s 758 mmHg 91%
    05:00 +26°C° 1.1 mm 3 m/s 758 mmHg 91%
    06:00 +26°C° 1.1 mm 3 m/s 758 mmHg 91%
    07:00 +27°C° 0.2 mm 3 m/s 759 mmHg 88%
    08:00 +28°C° 0.2 mm 3 m/s 759 mmHg 84%
    09:00 +29°C° 0.2 mm 3 m/s 760 mmHg 81%
    10:00 +30°C° 0.1 mm 3 m/s 760 mmHg 74%
    11:00 +33°C° 0.1 mm 3 m/s 759 mmHg 67%
    12:00 +34°C° 0.1 mm 3 m/s 759 mmHg 60%
    13:00 +33°C° 0.2 mm 3 m/s 758 mmHg 63%
    14:00 +33°C° 0.2 mm 3 m/s 758 mmHg 66%
    15:00 +31°C° 0.2 mm 3 m/s 757 mmHg 69%
    16:00 +31°C° 0.1 mm 3 m/s 757 mmHg 73%
    17:00 +30°C° 0.1 mm 3 m/s 757 mmHg 77%
    18:00 +29°C° 0.1 mm 3 m/s 757 mmHg 81%
    19:00 +29°C° 0 mm 3 m/s 757 mmHg 82%
    20:00 +28°C° 0 mm 3 m/s 758 mmHg 83%
    21:00 +28°C° 0 mm 3 m/s 759 mmHg 84%
    22:00 +28°C° 0 mm 4 m/s 758 mmHg 84%
    23:00 +28°C° 0 mm 4 m/s 758 mmHg 83%

    27 Janvier, Dimanche

    Heure Température Précipitation Vent Pression Humidité
    00:00 +28°C° 0 mm 4 m/s 758 mmHg 83%
    01:00 +28°C° 0 mm 4 m/s 758 mmHg 84%
    02:00 +28°C° 0 mm 4 m/s 757 mmHg 84%
    03:00 +28°C° 0 mm 3 m/s 757 mmHg 85%
    04:00 +28°C° 0 mm 3 m/s 757 mmHg 85%
    05:00 +28°C° 0 mm 3 m/s 757 mmHg 86%
    06:00 +28°C° 0 mm 3 m/s 758 mmHg 86%
    07:00 +29°C° 0.1 mm 3 m/s 758 mmHg 82%
    08:00 +30°C° 0.1 mm 4 m/s 759 mmHg 77%
    09:00 +32°C° 0.1 mm 4 m/s 760 mmHg 72%
    10:00 +32°C° 0.3 mm 4 m/s 759 mmHg 70%
    11:00 +33°C° 0.3 mm 4 m/s 759 mmHg 67%
    12:00 +33°C° 0.3 mm 4 m/s 759 mmHg 64%
    13:00 +33°C° 0.2 mm 4 m/s 758 mmHg 65%
    14:00 +33°C° 0.2 mm 5 m/s 757 mmHg 67%
    15:00 +33°C° 0.2 mm 5 m/s 757 mmHg 68%
    16:00 +32°C° 0.3 mm 5 m/s 757 mmHg 72%
    17:00 +30°C° 0.3 mm 5 m/s 757 mmHg 77%
    18:00 +29°C° 0.3 mm 5 m/s 757 mmHg 82%
    19:00 +28°C° 0 mm 5 m/s 758 mmHg 82%
    20:00 +28°C° 0 mm 5 m/s 758 mmHg 82%
    21:00 +28°C° 0 mm 5 m/s 759 mmHg 83%
    22:00 +28°C° 0 mm 5 m/s 759 mmHg 83%
    23:00 +28°C° 0 mm 5 m/s 759 mmHg 83%

    28 Janvier, Lundi

    Heure Température Précipitation Vent Pression Humidité
    00:00 +28°C° 0 mm 5 m/s 759 mmHg 83%
    01:00 +28°C° 0.1 mm 5 m/s 758 mmHg 84%
    02:00 +28°C° 0.1 mm 5 m/s 757 mmHg 84%
    03:00 +28°C° 0.1 mm 4 m/s 757 mmHg 85%
    04:00 +28°C° 0.1 mm 4 m/s 757 mmHg 86%
    05:00 +28°C° 0.1 mm 4 m/s 757 mmHg 86%
    06:00 +28°C° 0.1 mm 4 m/s 757 mmHg 87%
    07:00 +28°C° 0 mm 5 m/s 758 mmHg 83%
    08:00 +29°C° 0 mm 5 m/s 758 mmHg 79%
    09:00 +30°C° 0 mm 5 m/s 759 mmHg 75%
    10:00 +32°C° 0.4 mm 5 m/s 758 mmHg 74%
    11:00 +32°C° 0.4 mm 4 m/s 758 mmHg 72%
    12:00 +33°C° 0.4 mm 4 m/s 758 mmHg 71%
    13:00 +33°C° 0.6 mm 4 m/s 757 mmHg 72%
    14:00 +32°C° 0.6 mm 4 m/s 756 mmHg 73%
    15:00 +32°C° 0.6 mm 4 m/s 756 mmHg 73%
    16:00 +32°C° 0.1 mm 4 m/s 756 mmHg 77%
    17:00 +30°C° 0.1 mm 4 m/s 756 mmHg 80%
    18:00 +29°C° 0.1 mm 4 m/s 756 mmHg 83%
    19:00 +29°C° 0 mm 5 m/s 757 mmHg 83%
    20:00 +29°C° 0 mm 5 m/s 757 mmHg 83%
    21:00 +28°C° 0 mm 5 m/s 758 mmHg 83%
    22:00 +29°C° 0 mm 5 m/s 758 mmHg 83%
    23:00 +29°C° 0 mm 5 m/s 758 mmHg 82%

    29 Janvier, Mardi

    Heure Température Précipitation Vent Pression Humidité
    00:00 +29°C° 0 mm 5 m/s 758 mmHg 82%
    01:00 +28°C° 0.3 mm 5 m/s 757 mmHg 84%
    02:00 +28°C° 0.3 mm 5 m/s 757 mmHg 86%
    03:00 +28°C° 0.3 mm 5 m/s 757 mmHg 88%
    04:00 +27°C° 0.5 mm 5 m/s 757 mmHg 89%
    05:00 +27°C° 0.5 mm 4 m/s 757 mmHg 89%
    06:00 +27°C° 0.5 mm 4 m/s 757 mmHg 90%
    07:00 +28°C° 0 mm 4 m/s 757 mmHg 85%
    08:00 +29°C° 0 mm 5 m/s 758 mmHg 80%
    09:00 +32°C° 0 mm 5 m/s 758 mmHg 76%
    10:00 +32°C° 0.1 mm 5 m/s 758 mmHg 72%
    11:00 +33°C° 0.1 mm 5 m/s 758 mmHg 68%
    12:00 +34°C° 0.1 mm 5 m/s 757 mmHg 64%
    13:00 +33°C° 0.6 mm 5 m/s 757 mmHg 67%
    14:00 +33°C° 0.6 mm 5 m/s 756 mmHg 70%
    15:00 +32°C° 0.6 mm 5 m/s 755 mmHg 72%
    16:00 +32°C° 0 mm 5 m/s 756 mmHg 74%
    17:00 +30°C° 0 mm 5 m/s 756 mmHg 75%
    18:00 +30°C° 0 mm 4 m/s 756 mmHg 77%
    19:00 +29°C° 0 mm 4 m/s 756 mmHg 78%
    20:00 +29°C° 0 mm 4 m/s 757 mmHg 79%
    21:00 +29°C° 0 mm 4 m/s 757 mmHg 81%
    22:00 +29°C° 0 mm 4 m/s 757 mmHg 82%
    23:00 +29°C° 0 mm 4 m/s 757 mmHg 83%
    Voir plus